Whidbey Island, WA
on Monday, December 24, 2012

Monday
Previous Day Next Day
Daily Summary
 ActualAverageRecord
Temperature
Mean Temperature °F °F  
Max Temperature 46°F 43°F 52°F (2011)
Min Temperature 36°F 33°F 30°F (1996)
Degree Days
Heating Degree Days 24    
Moisture
Dew Point 36°F   
Average Humidity 87    
Maximum Humidity 93    
Minimum Humidity 79    
Precipitation
Precipitation 0.00 in in in ()
Wind
Wind Speed 5 mph   
Max Wind Speed 16 mph   
Max Gust Speed 21 mph   
Visibility 9 miles   
Events Fog , Rain   
Averages and records for this station are not official NWS values.
Key: T is trace of precipitation, MM is missing value
Source: NWS Daily Summary
Seasonal Weather Averages
Time(PST)TemperatureDew PointHumidity Pressure Visibility Wind DirectionWind SpeedGust SpeedPrecipitationEvents Conditions
12:56 AM 39.0°F 36.0°F 89% 29.86 in 5.0 miles Calm Calm - N/A   Overcast
1:56 AM 39.0°F 36.0°F 89% 29.88 in 10.0 miles ESE 3.5 mph - N/A   Overcast
2:37 AM 39.2°F 35.6°F 87% 29.90 in 10.0 miles ESE 3.5 mph - 0.00 in   Overcast
2:56 AM 39.0°F 36.0°F 89% 29.92 in 10.0 miles ESE 3.5 mph - 0.00 in   Overcast
3:56 AM 37.9°F 35.1°F 89% 29.95 in 10.0 miles ESE 3.5 mph - 0.00 in Rain Light Rain
4:05 AM 39.2°F 35.6°F 87% 29.94 in 10.0 miles ESE 3.5 mph - 0.00 in   Overcast
4:19 AM 39.2°F 35.6°F 87% 29.95 in 10.0 miles ESE 3.5 mph - 0.00 in Rain Light Rain
4:39 AM 39.2°F 35.6°F 87% 29.95 in 10.0 miles ESE 3.5 mph - 0.00 in   Overcast
4:56 AM 37.0°F 35.1°F 93% 29.98 in 10.0 miles ESE 3.5 mph - 0.00 in   Mostly Cloudy
5:56 AM 37.0°F 34.0°F 89% 30.01 in 10.0 miles ESE 5.8 mph - N/A   Mostly Cloudy
6:56 AM 36.0°F 34.0°F 93% 30.03 in 8.0 miles ESE 4.6 mph - N/A   Mostly Cloudy
7:56 AM 36.0°F 33.1°F 89% 30.06 in 7.0 miles ESE 5.8 mph - N/A Fog Patches of Fog
8:56 AM 36.0°F 33.1°F 89% 30.10 in 7.0 miles East 5.8 mph - N/A Fog Patches of Fog
9:56 AM 39.0°F 37.0°F 93% 30.12 in 8.0 miles East 8.1 mph - N/A   Mostly Cloudy
10:56 AM 42.1°F 39.0°F 89% 30.14 in 8.0 miles SE 6.9 mph - N/A   Mostly Cloudy
11:14 AM 42.8°F 39.2°F 87% 30.13 in 8.0 miles SE 8.1 mph - N/A   Overcast
11:56 AM 42.1°F 39.0°F 89% 30.15 in 10.0 miles SE 5.8 mph - N/A   Overcast
12:30 PM 42.8°F 39.2°F 87% 30.14 in 10.0 miles ESE 4.6 mph - N/A   Overcast
12:56 PM 43.0°F 39.0°F 86% 30.16 in 10.0 miles SSE 8.1 mph - N/A   Overcast
1:17 PM 42.8°F 39.2°F 87% 30.16 in 8.0 miles East 4.6 mph - N/A   Overcast
1:56 PM 46.0°F 41.0°F 83% 30.17 in 10.0 miles SE 9.2 mph - N/A   Overcast
2:56 PM 44.1°F 37.9°F 79% 30.17 in 8.0 miles SE 8.1 mph - N/A   Overcast
3:56 PM 41.0°F 36.0°F 82% 30.17 in 10.0 miles East 4.6 mph - N/A   Overcast
4:56 PM 39.0°F 35.1°F 86% 30.17 in 10.0 miles East 5.8 mph - N/A   Mostly Cloudy
5:56 PM 39.0°F 35.1°F 86% 30.16 in 10.0 miles East 6.9 mph - N/A   Mostly Cloudy
6:56 PM 41.0°F 37.0°F 86% 30.14 in 10.0 miles ESE 8.1 mph - N/A   Overcast
7:56 PM 41.0°F 37.0°F 86% 30.10 in 10.0 miles ESE 13.8 mph 20.7 mph N/A   Overcast
8:56 PM 39.9°F 36.0°F 86% 30.11 in 10.0 miles ESE 9.2 mph - N/A   Overcast
9:39 PM 39.2°F 35.6°F 87% 30.08 in 10.0 miles East 12.7 mph - N/A   Overcast
9:56 PM 39.9°F 36.0°F 86% 30.09 in 10.0 miles ESE 11.5 mph - N/A   Overcast
10:56 PM 39.9°F 36.0°F 86% 30.09 in 10.0 miles East 12.7 mph - N/A   Overcast
11:56 PM 39.9°F 35.1°F 83% 30.06 in 10.0 miles ESE 16.1 mph - N/A   Overcast
Moon Phase
Dec. 24 Dec. 28 Jan. 04 Jan. 11 Jan. 18
Sunrise:08:00 AM (PST) Moon Rise:01:56 PM (PST)12/24
Sunset:04:20 PM (PST) Moon Set:04:37 AM (PST)12/24

Copyright © 2014 The Weather Underground, Inc.